Time,TemperatureF,DewpointF,PressureIn,WindDirection,WindDirectionDegrees,WindSpeedMPH,WindSpeedGustMPH,Humidity,HourlyPrecipIn,Conditions,Clouds,dailyrainin,SoftwareType,DateUTC
2014-01-11 00:06:00,38.9,38.1,29.68,SSW,211,6.0,7.0,97,0.00,,,0.00,Wunderground v.1.15,2014-01-11 05:06:00,
2014-01-11 00:08:00,38.9,38.1,29.68,SSW,207,6.0,7.0,97,0.00,,,0.00,Wunderground v.1.15,2014-01-11 05:08:00,
2014-01-11 00:14:00,39.5,39.0,29.67,SSW,198,8.0,10.0,98,0.00,,,0.01,Wunderground v.1.15,2014-01-11 05:14:00,
2014-01-11 00:20:00,39.8,39.3,29.67,SSW,206,9.0,10.0,98,0.00,,,0.01,Wunderground v.1.15,2014-01-11 05:20:00,
2014-01-11 00:22:00,40.0,39.5,29.67,SSW,200,10.0,10.0,98,0.00,,,0.01,Wunderground v.1.15,2014-01-11 05:22:00,
2014-01-11 00:26:00,39.9,39.4,29.67,SSW,203,9.0,10.0,98,0.00,,,0.01,Wunderground v.1.15,2014-01-11 05:26:00,
2014-01-11 00:32:00,40.2,39.7,29.66,SSW,206,9.0,11.0,98,0.00,,,0.01,Wunderground v.1.15,2014-01-11 05:32:00,
2014-01-11 00:39:00,40.3,39.8,29.66,SW,225,10.0,11.0,98,0.00,,,0.02,Wunderground v.1.15,2014-01-11 05:39:00,
2014-01-11 00:44:00,40.5,40.0,29.66,SSW,205,10.0,12.0,98,0.00,,,0.02,Wunderground v.1.15,2014-01-11 05:44:00,
2014-01-11 00:50:00,40.2,39.7,29.66,SSW,200,10.0,10.0,98,0.00,,,0.02,Wunderground v.1.15,2014-01-11 05:50:00,
2014-01-11 00:56:00,40.0,39.5,29.65,SSW,207,8.0,10.0,98,0.00,,,0.02,Wunderground v.1.15,2014-01-11 05:56:00,
2014-01-11 01:02:00,40.0,39.5,29.64,SSW,203,9.0,12.0,98,0.00,,,0.03,Wunderground v.1.15,2014-01-11 06:02:00,
2014-01-11 01:08:00,40.2,39.7,29.64,SSW,209,10.0,14.0,98,0.00,,,0.03,Wunderground v.1.15,2014-01-11 06:08:00,
2014-01-11 01:14:00,40.5,40.0,29.63,SSW,208,12.0,12.0,98,0.00,,,0.03,Wunderground v.1.15,2014-01-11 06:14:00,
2014-01-11 01:20:00,40.7,40.2,29.63,SSW,211,12.0,13.0,98,0.00,,,0.03,Wunderground v.1.15,2014-01-11 06:20:00,
2014-01-11 01:26:00,40.5,40.0,29.62,SSW,194,11.0,16.0,98,0.00,,,0.04,Wunderground v.1.15,2014-01-11 06:26:00,
2014-01-11 01:32:00,40.5,40.0,29.62,SSW,201,11.0,11.0,98,0.00,,,0.04,Wunderground v.1.15,2014-01-11 06:32:00,
2014-01-11 01:38:00,40.4,39.9,29.62,SSW,205,11.0,11.0,98,0.00,,,0.04,Wunderground v.1.15,2014-01-11 06:38:00,
2014-01-11 01:44:00,40.4,39.9,29.62,SW,214,10.0,12.0,98,0.00,,,0.05,Wunderground v.1.15,2014-01-11 06:44:00,
2014-01-11 01:50:00,40.5,40.0,29.61,SW,214,11.0,11.0,98,0.00,,,0.05,Wunderground v.1.15,2014-01-11 06:50:00,
2014-01-11 01:56:00,40.7,40.2,29.61,SSW,211,11.0,14.0,98,0.00,,,0.05,Wunderground v.1.15,2014-01-11 06:56:00,
2014-01-11 02:02:00,40.6,40.1,29.61,SW,225,10.0,10.0,98,0.00,,,0.05,Wunderground v.1.15,2014-01-11 07:02:00,
2014-01-11 02:08:00,40.5,40.0,29.60,SSW,204,10.0,10.0,98,0.00,,,0.05,Wunderground v.1.15,2014-01-11 07:08:00,
2014-01-11 02:16:00,40.1,39.6,29.59,SSW,213,8.0,10.0,98,0.00,,,0.06,Wunderground v.1.15,2014-01-11 07:16:00,
2014-01-11 02:22:00,40.3,39.8,29.60,SSW,206,8.0,8.0,98,0.00,,,0.06,Wunderground v.1.15,2014-01-11 07:22:00,
2014-01-11 02:28:00,40.4,39.9,29.60,SSW,213,7.0,8.0,98,0.00,,,0.06,Wunderground v.1.15,2014-01-11 07:28:00,
2014-01-11 02:36:00,40.6,40.1,29.60,SW,224,7.0,9.0,98,0.00,,,0.06,Wunderground v.1.15,2014-01-11 07:36:00,
2014-01-11 02:42:00,40.5,40.0,29.60,SW,221,8.0,8.0,98,0.00,,,0.06,Wunderground v.1.15,2014-01-11 07:42:00,
2014-01-11 02:50:00,40.5,40.0,29.60,SSW,192,8.0,8.0,98,0.00,,,0.07,Wunderground v.1.15,2014-01-11 07:50:00,
2014-01-11 02:56:00,40.7,40.2,29.60,SW,215,8.0,10.0,98,0.00,,,0.07,Wunderground v.1.15,2014-01-11 07:56:00,
2014-01-11 03:06:00,41.4,40.9,29.59,SW,223,8.0,8.0,98,0.00,,,0.07,Wunderground v.1.15,2014-01-11 08:06:00,
2014-01-11 03:12:00,41.5,41.0,29.59,SW,221,7.0,7.0,98,0.00,,,0.07,Wunderground v.1.15,2014-01-11 08:12:00,
2014-01-11 03:19:00,41.4,40.9,29.58,SW,232,6.0,7.0,98,0.00,,,0.08,Wunderground v.1.15,2014-01-11 08:19:00,
2014-01-11 03:24:00,41.5,41.0,29.58,SW,228,5.0,9.0,98,0.00,,,0.08,Wunderground v.1.15,2014-01-11 08:24:00,
2014-01-11 03:30:00,41.3,40.8,29.57,SW,225,4.0,7.0,98,0.00,,,0.08,Wunderground v.1.15,2014-01-11 08:30:00,
2014-01-11 03:36:00,41.0,40.5,29.57,SW,224,5.0,7.0,98,0.00,,,0.08,Wunderground v.1.15,2014-01-11 08:36:00,
2014-01-11 03:42:00,41.0,40.5,29.57,SW,227,5.0,6.0,98,0.00,,,0.08,Wunderground v.1.15,2014-01-11 08:42:00,
2014-01-11 03:50:00,41.1,40.6,29.56,SW,234,5.0,9.0,98,0.00,,,0.09,Wunderground v.1.15,2014-01-11 08:50:00,
2014-01-11 03:56:00,41.4,40.9,29.56,SW,221,6.0,10.0,98,0.00,,,0.09,Wunderground v.1.15,2014-01-11 08:56:00,
2014-01-11 04:02:00,41.5,41.0,29.55,SW,227,7.0,11.0,98,0.00,,,0.09,Wunderground v.1.15,2014-01-11 09:02:00,
2014-01-11 04:10:00,41.6,41.1,29.55,SW,222,7.0,7.0,98,0.00,,,0.09,Wunderground v.1.15,2014-01-11 09:10:00,
2014-01-11 04:16:00,41.4,40.9,29.55,SW,219,6.0,7.0,98,0.00,,,0.09,Wunderground v.1.15,2014-01-11 09:16:00,
2014-01-11 04:22:00,41.4,40.9,29.55,SW,223,7.0,9.0,98,0.00,,,0.09,Wunderground v.1.15,2014-01-11 09:22:00,
2014-01-11 04:28:00,41.3,40.8,29.54,SW,225,6.0,9.0,98,0.00,,,0.10,Wunderground v.1.15,2014-01-11 09:28:00,
2014-01-11 04:36:00,41.2,40.7,29.54,SW,232,6.0,9.0,98,0.00,,,0.10,Wunderground v.1.15,2014-01-11 09:36:00,
2014-01-11 04:42:00,41.3,40.8,29.54,SW,225,6.0,7.0,98,0.00,,,0.10,Wunderground v.1.15,2014-01-11 09:42:00,
2014-01-11 04:48:00,41.2,40.7,29.53,SW,223,5.0,8.0,98,0.00,,,0.10,Wunderground v.1.15,2014-01-11 09:48:00,
2014-01-11 04:54:00,41.1,40.6,29.53,SW,223,5.0,6.0,98,0.00,,,0.10,Wunderground v.1.15,2014-01-11 09:54:00,
2014-01-11 05:00:00,41.1,40.6,29.52,SW,222,5.0,5.0,98,0.00,,,0.10,Wunderground v.1.15,2014-01-11 10:00:00,
2014-01-11 05:06:00,41.0,40.5,29.52,SW,222,5.0,6.0,98,0.00,,,0.11,Wunderground v.1.15,2014-01-11 10:06:00,
2014-01-11 05:12:00,40.9,40.4,29.52,SW,215,5.0,7.0,98,0.00,,,0.11,Wunderground v.1.15,2014-01-11 10:12:00,
2014-01-11 05:20:00,40.9,40.4,29.52,SW,225,6.0,7.0,98,0.00,,,0.11,Wunderground v.1.15,2014-01-11 10:20:00,
2014-01-11 05:26:00,40.9,40.4,29.51,SW,231,7.0,7.0,98,0.00,,,0.11,Wunderground v.1.15,2014-01-11 10:26:00,
2014-01-11 05:32:00,40.9,40.4,29.50,SSW,213,7.0,7.0,98,0.00,,,0.11,Wunderground v.1.15,2014-01-11 10:32:00,
2014-01-11 05:38:00,40.8,40.3,29.50,SW,219,6.0,7.0,98,0.00,,,0.11,Wunderground v.1.15,2014-01-11 10:38:00,
2014-01-11 05:44:00,40.8,40.3,29.51,SW,217,6.0,7.0,98,0.00,,,0.12,Wunderground v.1.15,2014-01-11 10:44:00,
2014-01-11 05:50:00,40.7,40.2,29.50,SW,214,6.0,10.0,98,0.00,,,0.12,Wunderground v.1.15,2014-01-11 10:50:00,
2014-01-11 05:56:00,40.7,40.2,29.50,SW,217,6.0,10.0,98,0.00,,,0.12,Wunderground v.1.15,2014-01-11 10:56:00,
2014-01-11 06:04:00,40.6,40.1,29.50,SSW,213,6.0,7.0,98,0.00,,,0.12,Wunderground v.1.15,2014-01-11 11:04:00,
2014-01-11 06:12:00,40.5,40.0,29.48,SSW,211,7.0,7.0,98,0.00,,,0.12,Wunderground v.1.15,2014-01-11 11:12:00,
2014-01-11 06:18:00,40.1,39.6,29.48,SSW,209,7.0,8.0,98,0.00,,,0.12,Wunderground v.1.15,2014-01-11 11:18:00,
2014-01-11 06:24:00,39.9,39.4,29.47,SSW,204,6.0,8.0,98,0.00,,,0.13,Wunderground v.1.15,2014-01-11 11:24:00,
2014-01-11 06:30:00,39.6,39.1,29.46,SSW,201,7.0,7.0,98,0.00,,,0.13,Wunderground v.1.15,2014-01-11 11:30:00,
2014-01-11 06:36:00,39.5,39.0,29.45,SSW,199,7.0,7.0,98,0.00,,,0.13,Wunderground v.1.15,2014-01-11 11:36:00,
2014-01-11 06:42:00,39.7,39.2,29.46,SW,217,7.0,9.0,98,0.00,,,0.13,Wunderground v.1.15,2014-01-11 11:42:00,
2014-01-11 06:50:00,39.6,39.1,29.46,SSW,211,8.0,8.0,98,0.00,,,0.13,Wunderground v.1.15,2014-01-11 11:50:00,
2014-01-11 06:56:00,39.7,39.2,29.46,SW,214,8.0,11.0,98,0.00,,,0.13,Wunderground v.1.15,2014-01-11 11:56:00,
2014-01-11 07:02:00,39.8,39.3,29.47,SW,217,7.0,8.0,98,0.00,,,0.13,Wunderground v.1.15,2014-01-11 12:02:00,
2014-01-11 07:08:00,39.8,39.3,29.46,SW,220,6.0,8.0,98,0.00,,,0.13,Wunderground v.1.15,2014-01-11 12:08:00,
2014-01-11 07:14:00,39.9,39.4,29.46,SW,222,6.0,8.0,98,0.00,,,0.14,Wunderground v.1.15,2014-01-11 12:14:00,
2014-01-11 07:20:00,40.0,39.5,29.46,SSW,213,7.0,10.0,98,0.00,,,0.14,Wunderground v.1.15,2014-01-11 12:20:00,
2014-01-11 07:26:00,40.0,39.5,29.45,SW,217,8.0,10.0,98,0.00,,,0.14,Wunderground v.1.15,2014-01-11 12:26:00,
2014-01-11 07:32:00,40.0,39.5,29.45,SW,218,6.0,6.0,98,0.00,,,0.14,Wunderground v.1.15,2014-01-11 12:32:00,
2014-01-11 07:38:00,40.0,39.5,29.45,SW,218,5.0,6.0,98,0.00,,,0.14,Wunderground v.1.15,2014-01-11 12:38:00,
2014-01-11 07:44:00,40.2,39.7,29.44,SW,227,5.0,6.0,98,0.00,,,0.14,Wunderground v.1.15,2014-01-11 12:44:00,
2014-01-11 07:50:00,40.4,39.9,29.44,SW,218,5.0,6.0,98,0.00,,,0.14,Wunderground v.1.15,2014-01-11 12:50:00,
2014-01-11 07:56:00,40.5,40.0,29.44,SW,229,6.0,8.0,98,0.00,,,0.14,Wunderground v.1.15,2014-01-11 12:56:00,
2014-01-11 08:02:00,40.5,40.0,29.44,SW,225,6.0,8.0,98,0.00,,,0.15,Wunderground v.1.15,2014-01-11 13:02:00,
2014-01-11 08:08:00,40.5,40.0,29.43,SW,224,6.0,8.0,98,0.00,,,0.15,Wunderground v.1.15,2014-01-11 13:08:00,
2014-01-11 08:14:00,40.6,40.1,29.43,SW,225,5.0,8.0,98,0.00,,,0.15,Wunderground v.1.15,2014-01-11 13:14:00,
2014-01-11 08:20:00,40.5,40.0,29.42,SW,217,5.0,10.0,98,0.00,,,0.15,Wunderground v.1.15,2014-01-11 13:20:00,
2014-01-11 08:26:00,40.5,40.0,29.42,SSW,207,6.0,10.0,98,0.00,,,0.15,Wunderground v.1.15,2014-01-11 13:26:00,
2014-01-11 08:32:00,40.4,39.9,29.42,SSW,207,5.0,5.0,98,0.00,,,0.15,Wunderground v.1.15,2014-01-11 13:32:00,
2014-01-11 08:38:00,40.5,40.0,29.42,SSW,206,5.0,6.0,98,0.00,,,0.15,Wunderground v.1.15,2014-01-11 13:38:00,
2014-01-11 08:44:00,40.6,40.1,29.42,SSW,209,6.0,9.0,98,0.00,,,0.15,Wunderground v.1.15,2014-01-11 13:44:00,
2014-01-11 08:50:00,40.6,40.1,29.42,SW,225,6.0,9.0,98,0.00,,,0.15,Wunderground v.1.15,2014-01-11 13:50:00,
2014-01-11 08:56:00,40.8,40.3,29.41,SW,223,6.0,9.0,98,0.00,,,0.15,Wunderground v.1.15,2014-01-11 13:56:00,
2014-01-11 09:04:00,40.9,40.4,29.41,SW,215,6.0,7.0,98,0.00,,,0.16,Wunderground v.1.15,2014-01-11 14:04:00,
2014-01-11 09:10:00,41.1,40.6,29.41,SW,224,5.0,6.0,98,0.00,,,0.16,Wunderground v.1.15,2014-01-11 14:10:00,
2014-01-11 09:16:00,41.4,40.9,29.41,SW,228,6.0,6.0,98,0.00,,,0.16,Wunderground v.1.15,2014-01-11 14:16:00,
2014-01-11 09:22:00,41.4,40.9,29.41,SW,225,6.0,6.0,98,0.00,,,0.16,Wunderground v.1.15,2014-01-11 14:22:00,
2014-01-11 09:28:00,41.5,41.0,29.41,SW,229,5.0,6.0,98,0.00,,,0.16,Wunderground v.1.15,2014-01-11 14:28:00,
2014-01-11 09:34:00,41.5,41.0,29.41,WSW,258,5.0,6.0,98,0.00,,,0.16,Wunderground v.1.15,2014-01-11 14:34:00,
2014-01-11 09:40:00,41.2,40.7,29.42,WSW,240,5.0,5.0,98,0.00,,,0.16,Wunderground v.1.15,2014-01-11 14:40:00,
2014-01-11 09:46:00,41.0,40.5,29.42,SW,232,5.0,5.0,98,0.00,,,0.16,Wunderground v.1.15,2014-01-11 14:46:00,
2014-01-11 09:52:00,41.1,40.6,29.41,SW,234,4.0,4.0,98,0.00,,,0.16,Wunderground v.1.15,2014-01-11 14:52:00,
2014-01-11 09:58:00,41.0,40.5,29.41,SW,234,4.0,7.0,98,0.00,,,0.16,Wunderground v.1.15,2014-01-11 14:58:00,
2014-01-11 10:04:00,41.0,40.5,29.41,SW,231,6.0,6.0,98,0.00,,,0.17,Wunderground v.1.15,2014-01-11 15:04:00,
2014-01-11 10:10:00,41.0,40.5,29.41,SW,223,7.0,7.0,98,0.00,,,0.17,Wunderground v.1.15,2014-01-11 15:10:00,
2014-01-11 10:16:00,41.0,40.5,29.41,SW,223,6.0,10.0,98,0.00,,,0.17,Wunderground v.1.15,2014-01-11 15:16:00,
2014-01-11 10:22:00,41.0,40.5,29.39,SW,228,6.0,6.0,98,0.00,,,0.17,Wunderground v.1.15,2014-01-11 15:22:00,
2014-01-11 10:28:00,41.0,40.5,29.39,SW,232,5.0,6.0,98,0.00,,,0.17,Wunderground v.1.15,2014-01-11 15:28:00,
2014-01-11 10:36:00,41.0,40.5,29.40,WSW,245,6.0,10.0,98,0.00,,,0.17,Wunderground v.1.15,2014-01-11 15:36:00,
2014-01-11 10:42:00,40.9,40.4,29.40,SW,233,7.0,10.0,98,0.00,,,0.17,Wunderground v.1.15,2014-01-11 15:42:00,
2014-01-11 10:50:00,40.7,40.2,29.40,SW,223,7.0,7.0,98,0.00,,,0.17,Wunderground v.1.15,2014-01-11 15:50:00,
2014-01-11 10:56:00,40.6,40.1,29.41,SW,235,6.0,7.0,98,0.00,,,0.17,Wunderground v.1.15,2014-01-11 15:56:00,
2014-01-11 11:02:00,40.4,39.9,29.41,West,262,6.0,8.0,98,0.00,,,0.17,Wunderground v.1.15,2014-01-11 16:02:00,
2014-01-11 11:08:00,40.4,39.9,29.41,SW,234,6.0,12.0,98,0.00,,,0.17,Wunderground v.1.15,2014-01-11 16:08:00,
2014-01-11 11:14:00,40.4,39.9,29.41,SW,223,7.0,7.0,98,0.00,,,0.18,Wunderground v.1.15,2014-01-11 16:14:00,
2014-01-11 11:20:00,40.3,39.8,29.41,SW,233,7.0,7.0,98,0.00,,,0.18,Wunderground v.1.15,2014-01-11 16:20:00,
2014-01-11 11:26:00,40.2,39.7,29.40,WSW,237,7.0,7.0,98,0.00,,,0.18,Wunderground v.1.15,2014-01-11 16:26:00,
2014-01-11 11:32:00,40.1,39.6,29.40,WSW,242,6.0,9.0,98,0.00,,,0.18,Wunderground v.1.15,2014-01-11 16:32:00,
2014-01-11 11:38:00,40.1,39.6,29.39,WSW,247,5.0,9.0,98,0.00,,,0.18,Wunderground v.1.15,2014-01-11 16:38:00,
2014-01-11 11:44:00,40.0,39.5,29.39,WSW,246,4.0,10.0,98,0.00,,,0.18,Wunderground v.1.15,2014-01-11 16:44:00,
2014-01-11 11:50:00,40.0,39.5,29.38,SW,236,5.0,5.0,98,0.00,,,0.18,Wunderground v.1.15,2014-01-11 16:50:00,
2014-01-11 11:56:00,40.2,39.7,29.38,SW,230,5.0,6.0,98,0.00,,,0.18,Wunderground v.1.15,2014-01-11 16:56:00,
2014-01-11 12:04:00,40.1,39.6,29.39,WSW,249,5.0,6.0,98,0.00,,,0.18,Wunderground v.1.15,2014-01-11 17:04:00,
2014-01-11 12:10:00,40.4,39.9,29.38,WSW,252,5.0,6.0,98,0.00,,,0.18,Wunderground v.1.15,2014-01-11 17:10:00,
2014-01-11 12:16:00,40.6,40.1,29.37,West,278,5.0,7.0,98,0.00,,,0.18,Wunderground v.1.15,2014-01-11 17:16:00,
2014-01-11 12:22:00,40.6,40.1,29.37,WSW,244,4.0,5.0,98,0.00,,,0.18,Wunderground v.1.15,2014-01-11 17:22:00,
2014-01-11 12:28:00,40.3,39.8,29.38,SW,233,5.0,6.0,98,0.00,,,0.19,Wunderground v.1.15,2014-01-11 17:28:00,
2014-01-11 12:36:00,39.8,39.3,29.38,WSW,245,6.0,6.0,98,0.00,,,0.19,Wunderground v.1.15,2014-01-11 17:36:00,
2014-01-11 12:42:00,39.6,39.1,29.37,West,262,6.0,6.0,98,0.00,,,0.19,Wunderground v.1.15,2014-01-11 17:42:00,
2014-01-11 12:50:00,39.6,39.1,29.37,WSW,238,5.0,5.0,98,0.00,,,0.19,Wunderground v.1.15,2014-01-11 17:50:00,
2014-01-11 12:56:00,39.7,39.2,29.38,West,265,5.0,13.0,98,0.00,,,0.19,Wunderground v.1.15,2014-01-11 17:56:00,
2014-01-11 13:02:00,39.7,39.2,29.38,West,263,5.0,9.0,98,0.00,,,0.19,Wunderground v.1.15,2014-01-11 18:02:00,
2014-01-11 13:10:00,39.5,39.0,29.39,West,267,6.0,8.0,98,0.00,,,0.19,Wunderground v.1.15,2014-01-11 18:10:00,
2014-01-11 13:16:00,39.3,38.8,29.39,West,273,5.0,8.0,98,0.00,,,0.19,Wunderground v.1.15,2014-01-11 18:16:00,
2014-01-11 13:22:00,39.1,38.6,29.39,SW,225,4.0,5.0,98,0.00,,,0.19,Wunderground v.1.15,2014-01-11 18:22:00,
2014-01-11 13:28:00,39.0,38.5,29.38,WSW,258,4.0,5.0,98,0.00,,,0.19,Wunderground v.1.15,2014-01-11 18:28:00,
2014-01-11 13:36:00,38.9,38.4,29.39,West,264,4.0,5.0,98,0.00,,,0.19,Wunderground v.1.15,2014-01-11 18:36:00,
2014-01-11 13:42:00,38.7,38.2,29.39,WSW,257,5.0,7.0,98,0.00,,,0.19,Wunderground v.1.15,2014-01-11 18:42:00,
2014-01-11 13:50:00,38.4,37.9,29.40,West,263,4.0,7.0,98,0.00,,,0.20,Wunderground v.1.15,2014-01-11 18:50:00,
2014-01-11 13:56:00,38.2,37.7,29.40,WSW,252,5.0,7.0,98,0.00,,,0.20,Wunderground v.1.15,2014-01-11 18:56:00,
2014-01-11 14:06:00,37.9,37.4,29.40,WNW,291,5.0,5.0,98,0.00,,,0.20,Wunderground v.1.15,2014-01-11 19:06:00,
2014-01-11 14:12:00,37.5,37.0,29.40,West,275,5.0,5.0,98,0.00,,,0.20,Wunderground v.1.15,2014-01-11 19:12:00,
2014-01-11 14:18:00,37.3,36.8,29.40,West,261,5.0,6.0,98,0.00,,,0.20,Wunderground v.1.15,2014-01-11 19:18:00,
2014-01-11 14:24:00,37.3,36.8,29.40,WSW,246,4.0,9.0,98,0.00,,,0.20,Wunderground v.1.15,2014-01-11 19:24:00,
2014-01-11 14:30:00,37.2,36.7,29.41,WSW,242,4.0,4.0,98,0.00,,,0.20,Wunderground v.1.15,2014-01-11 19:30:00,
2014-01-11 14:36:00,37.1,36.6,29.42,West,264,5.0,6.0,98,0.00,,,0.20,Wunderground v.1.15,2014-01-11 19:36:00,
2014-01-11 14:42:00,36.6,36.1,29.42,NW,310,6.0,6.0,98,0.00,,,0.20,Wunderground v.1.15,2014-01-11 19:42:00,
2014-01-11 14:48:00,36.2,35.7,29.42,WNW,286,6.0,6.0,98,0.00,,,0.20,Wunderground v.1.15,2014-01-11 19:48:00,
2014-01-11 14:54:00,36.0,35.5,29.43,WSW,254,5.0,12.0,98,0.00,,,0.20,Wunderground v.1.15,2014-01-11 19:54:00,
2014-01-11 15:00:00,35.7,35.2,29.43,NW,308,6.0,6.0,98,0.00,,,0.20,Wunderground v.1.15,2014-01-11 20:00:00,
2014-01-11 15:06:00,35.7,35.2,29.42,West,280,6.0,10.0,98,0.00,,,0.20,Wunderground v.1.15,2014-01-11 20:06:00,
2014-01-11 15:10:00,35.6,35.1,29.43,NW,317,5.0,5.0,98,0.00,,,0.20,Wunderground v.1.15,2014-01-11 20:10:00,
2014-01-11 15:16:00,35.6,35.1,29.43,West,267,3.0,10.0,98,0.00,,,0.20,Wunderground v.1.15,2014-01-11 20:16:00,
2014-01-11 15:22:00,35.4,34.9,29.43,WSW,242,3.0,11.0,98,0.00,,,0.21,Wunderground v.1.15,2014-01-11 20:22:00,
2014-01-11 15:29:00,35.3,34.8,29.44,West,263,5.0,11.0,98,0.00,,,0.21,Wunderground v.1.15,2014-01-11 20:29:00,
2014-01-11 15:36:00,35.2,34.7,29.45,WNW,282,5.0,6.0,98,0.00,,,0.21,Wunderground v.1.15,2014-01-11 20:36:00,
2014-01-11 15:42:00,35.2,34.7,29.45,West,271,5.0,9.0,98,0.00,,,0.21,Wunderground v.1.15,2014-01-11 20:42:00,
2014-01-11 15:50:00,35.2,34.7,29.46,West,266,6.0,6.0,98,0.00,,,0.21,Wunderground v.1.15,2014-01-11 20:50:00,
2014-01-11 15:56:00,35.2,34.7,29.46,WNW,287,5.0,6.0,98,0.00,,,0.21,Wunderground v.1.15,2014-01-11 20:56:00,
2014-01-11 16:02:00,35.1,34.6,29.47,WNW,282,6.0,9.0,98,0.00,,,0.21,Wunderground v.1.15,2014-01-11 21:02:00,
2014-01-11 16:08:00,35.1,34.6,29.47,West,262,6.0,9.0,98,0.00,,,0.21,Wunderground v.1.15,2014-01-11 21:08:00,
2014-01-11 16:14:00,35.1,34.6,29.47,WNW,294,5.0,6.0,98,0.00,,,0.21,Wunderground v.1.15,2014-01-11 21:14:00,
2014-01-11 16:20:00,35.2,34.7,29.47,West,266,5.0,5.0,98,0.00,,,0.21,Wunderground v.1.15,2014-01-11 21:20:00,
2014-01-11 16:26:00,35.2,34.7,29.48,WSW,256,6.0,12.0,98,0.00,,,0.21,Wunderground v.1.15,2014-01-11 21:26:00,
2014-01-11 16:32:00,35.2,34.7,29.48,WNW,299,6.0,7.0,98,0.00,,,0.21,Wunderground v.1.15,2014-01-11 21:32:00,
2014-01-11 16:40:00,35.2,34.4,29.49,WSW,240,6.0,10.0,97,0.00,,,0.21,Wunderground v.1.15,2014-01-11 21:40:00,
2014-01-11 16:44:00,35.3,34.5,29.49,SW,230,6.0,13.0,97,0.00,,,0.21,Wunderground v.1.15,2014-01-11 21:44:00,
2014-01-11 16:50:00,35.3,34.5,29.50,West,265,7.0,7.0,97,0.00,,,0.21,Wunderground v.1.15,2014-01-11 21:50:00,
2014-01-11 16:56:00,35.3,34.5,29.50,West,281,5.0,8.0,97,0.00,,,0.21,Wunderground v.1.15,2014-01-11 21:56:00,
2014-01-11 17:03:00,35.3,34.3,29.50,West,263,5.0,5.0,96,0.00,,,0.21,Wunderground v.1.15,2014-01-11 22:03:00,
2014-01-11 17:08:00,35.3,34.3,29.51,WNW,297,4.0,6.0,96,0.00,,,0.21,Wunderground v.1.15,2014-01-11 22:08:00,
2014-01-11 17:14:00,35.2,33.9,29.51,WSW,250,4.0,6.0,95,0.00,,,0.21,Wunderground v.1.15,2014-01-11 22:14:00,
2014-01-11 17:20:00,35.2,33.9,29.52,WSW,239,5.0,5.0,95,0.00,,,0.22,Wunderground v.1.15,2014-01-11 22:20:00,
2014-01-11 17:26:00,35.2,33.9,29.52,WSW,254,5.0,9.0,95,0.00,,,0.22,Wunderground v.1.15,2014-01-11 22:26:00,
2014-01-11 17:32:00,35.1,33.8,29.52,NW,309,5.0,13.0,95,0.00,,,0.22,Wunderground v.1.15,2014-01-11 22:32:00,
2014-01-11 17:38:00,35.1,33.8,29.52,West,277,5.0,13.0,95,0.00,,,0.22,Wunderground v.1.15,2014-01-11 22:38:00,
2014-01-11 17:44:00,35.0,33.4,29.52,WNW,282,4.0,4.0,94,0.00,,,0.22,Wunderground v.1.15,2014-01-11 22:44:00,
2014-01-11 17:50:00,35.0,33.4,29.53,WNW,283,4.0,5.0,94,0.00,,,0.22,Wunderground v.1.15,2014-01-11 22:50:00,
2014-01-11 17:56:00,35.0,33.4,29.53,WNW,299,6.0,10.0,94,0.00,,,0.22,Wunderground v.1.15,2014-01-11 22:56:00,
2014-01-11 18:04:00,35.0,33.4,29.54,West,263,5.0,6.0,94,0.00,,,0.22,Wunderground v.1.15,2014-01-11 23:04:00,
2014-01-11 18:10:00,35.0,33.2,29.54,WSW,258,4.0,6.0,93,0.00,,,0.22,Wunderground v.1.15,2014-01-11 23:10:00,
2014-01-11 18:16:00,35.0,33.4,29.54,NW,307,4.0,12.0,94,0.00,,,0.22,Wunderground v.1.15,2014-01-11 23:16:00,
2014-01-11 18:22:00,35.0,33.2,29.55,West,271,4.0,5.0,93,0.00,,,0.22,Wunderground v.1.15,2014-01-11 23:22:00,
2014-01-11 18:28:00,34.9,33.1,29.55,West,263,4.0,6.0,93,0.00,,,0.22,Wunderground v.1.15,2014-01-11 23:28:00,
2014-01-11 18:36:00,34.8,33.0,29.55,West,276,5.0,11.0,93,0.00,,,0.22,Wunderground v.1.15,2014-01-11 23:36:00,
2014-01-11 18:42:00,34.8,33.2,29.55,West,275,4.0,10.0,94,0.00,,,0.22,Wunderground v.1.15,2014-01-11 23:42:00,
2014-01-11 18:48:00,34.7,33.2,29.56,West,261,4.0,10.0,94,0.00,,,0.22,Wunderground v.1.15,2014-01-11 23:48:00,
2014-01-11 18:56:00,34.6,33.1,29.56,SW,232,2.0,4.0,94,0.00,,,0.22,Wunderground v.1.15,2014-01-11 23:56:00,
2014-01-11 19:02:00,34.6,33.1,29.56,NW,312,2.0,4.0,94,0.00,,,0.22,Wunderground v.1.15,2014-01-12 00:02:00,
2014-01-11 19:08:00,34.6,33.1,29.57,West,270,4.0,5.0,94,0.00,,,0.22,Wunderground v.1.15,2014-01-12 00:08:00,
2014-01-11 19:14:00,34.5,33.0,29.57,WSW,246,3.0,6.0,94,0.00,,,0.22,Wunderground v.1.15,2014-01-12 00:14:00,
2014-01-11 19:20:00,34.5,33.0,29.57,West,267,3.0,3.0,94,0.00,,,0.22,Wunderground v.1.15,2014-01-12 00:20:00,
2014-01-11 19:26:00,34.5,33.0,29.58,WSW,257,3.0,3.0,94,0.00,,,0.22,Wunderground v.1.15,2014-01-12 00:26:00,
2014-01-11 19:32:00,34.5,32.7,29.59,West,281,3.0,9.0,93,0.00,,,0.22,Wunderground v.1.15,2014-01-12 00:32:00,
2014-01-11 19:38:00,34.5,32.7,29.59,West,273,2.0,9.0,93,0.00,,,0.22,Wunderground v.1.15,2014-01-12 00:38:00,
2014-01-11 19:46:00,34.4,32.3,29.59,West,265,4.0,9.0,92,0.00,,,0.22,Wunderground v.1.15,2014-01-12 00:46:00,
2014-01-11 19:52:00,34.5,32.1,29.59,WSW,243,5.0,7.0,91,0.00,,,0.23,Wunderground v.1.15,2014-01-12 00:52:00,
2014-01-11 19:58:00,34.6,32.0,29.60,WNW,283,4.0,7.0,90,0.00,,,0.23,Wunderground v.1.15,2014-01-12 00:58:00,
2014-01-11 20:06:00,34.6,32.0,29.60,West,269,3.0,5.0,90,0.00,,,0.23,Wunderground v.1.15,2014-01-12 01:06:00,
2014-01-11 20:12:00,34.6,31.7,29.61,WSW,255,4.0,4.0,89,0.00,,,0.23,Wunderground v.1.15,2014-01-12 01:12:00,
2014-01-11 20:20:00,34.6,31.7,29.61,West,277,3.0,3.0,89,0.00,,,0.23,Wunderground v.1.15,2014-01-12 01:20:00,
2014-01-11 20:26:00,34.5,31.6,29.61,West,274,3.0,11.0,89,0.00,,,0.23,Wunderground v.1.15,2014-01-12 01:26:00,
2014-01-11 20:32:00,34.5,31.3,29.61,NNW,330,4.0,9.0,88,0.00,,,0.23,Wunderground v.1.15,2014-01-12 01:32:00,
2014-01-11 20:38:00,34.4,31.2,29.61,WNW,303,4.0,9.0,88,0.00,,,0.23,Wunderground v.1.15,2014-01-12 01:38:00,
2014-01-11 20:44:00,34.5,31.0,29.61,WSW,254,4.0,6.0,87,0.00,,,0.23,Wunderground v.1.15,2014-01-12 01:44:00,
2014-01-11 20:50:00,34.5,32.4,29.62,West,270,3.0,6.0,92,0.00,,,0.23,Wunderground v.1.15,2014-01-12 01:50:00,
2014-01-11 20:56:00,34.6,30.8,29.62,WNW,294,4.0,10.0,86,0.00,,,0.23,Wunderground v.1.15,2014-01-12 01:56:00,
2014-01-11 21:04:00,34.7,30.7,29.63,West,268,5.0,5.0,85,0.00,,,0.23,Wunderground v.1.15,2014-01-12 02:04:00,
2014-01-11 21:10:00,34.7,30.7,29.64,West,271,4.0,4.0,85,0.00,,,0.23,Wunderground v.1.15,2014-01-12 02:10:00,
2014-01-11 21:16:00,34.6,30.6,29.63,West,260,2.0,4.0,85,0.00,,,0.23,Wunderground v.1.15,2014-01-12 02:16:00,
2014-01-11 21:22:00,34.6,30.6,29.64,West,265,2.0,3.0,85,0.00,,,0.23,Wunderground v.1.15,2014-01-12 02:22:00,
2014-01-11 21:28:00,34.6,30.6,29.64,West,279,1.0,6.0,85,0.00,,,0.23,Wunderground v.1.15,2014-01-12 02:28:00,
2014-01-11 21:34:00,34.5,30.5,29.65,West,280,2.0,6.0,85,0.00,,,0.23,Wunderground v.1.15,2014-01-12 02:34:00,
2014-01-11 21:40:00,34.5,30.5,29.65,West,279,3.0,3.0,85,0.00,,,0.23,Wunderground v.1.15,2014-01-12 02:40:00,
2014-01-11 21:46:00,34.5,30.5,29.65,SW,236,3.0,13.0,85,0.00,,,0.23,Wunderground v.1.15,2014-01-12 02:46:00,
2014-01-11 21:52:00,34.5,30.5,29.65,WSW,258,4.0,11.0,85,0.00,,,0.23,Wunderground v.1.15,2014-01-12 02:52:00,
2014-01-11 21:58:00,34.5,30.5,29.65,NW,308,3.0,11.0,85,0.00,,,0.23,Wunderground v.1.15,2014-01-12 02:58:00,
2014-01-11 22:06:00,34.5,30.5,29.66,West,273,4.0,6.0,85,0.00,,,0.23,Wunderground v.1.15,2014-01-12 03:06:00,
2014-01-11 22:12:00,34.5,30.5,29.66,WNW,287,3.0,6.0,85,0.00,,,0.23,Wunderground v.1.15,2014-01-12 03:12:00,
2014-01-11 22:20:00,34.5,30.7,29.67,West,264,2.0,2.0,86,0.00,,,0.23,Wunderground v.1.15,2014-01-12 03:20:00,
2014-01-11 22:26:00,34.4,30.6,29.67,SW,226,3.0,3.0,86,0.00,,,0.23,Wunderground v.1.15,2014-01-12 03:26:00,
2014-01-11 22:32:00,34.4,30.9,29.67,West,270,4.0,7.0,87,0.00,,,0.23,Wunderground v.1.15,2014-01-12 03:32:00,
2014-01-11 22:38:00,34.3,30.8,29.67,West,264,2.0,7.0,87,0.00,,,0.23,Wunderground v.1.15,2014-01-12 03:38:00,
2014-01-11 22:44:00,34.2,31.0,29.68,WSW,248,2.0,6.0,88,0.00,,,0.23,Wunderground v.1.15,2014-01-12 03:44:00,
2014-01-11 22:50:00,34.2,31.0,29.68,WNW,286,3.0,3.0,88,0.00,,,0.23,Wunderground v.1.15,2014-01-12 03:50:00,
2014-01-11 22:56:00,34.1,30.9,29.68,West,266,4.0,7.0,88,0.00,,,0.23,Wunderground v.1.15,2014-01-12 03:56:00,
2014-01-11 23:02:00,34.1,30.9,29.69,West,262,4.0,6.0,88,0.00,,,0.23,Wunderground v.1.15,2014-01-12 04:02:00,
2014-01-11 23:08:00,34.1,30.9,29.69,West,268,3.0,6.0,88,0.00,,,0.23,Wunderground v.1.15,2014-01-12 04:08:00,
2014-01-11 23:16:00,34.2,31.0,29.69,West,271,5.0,5.0,88,0.00,,,0.24,Wunderground v.1.15,2014-01-12 04:16:00,
2014-01-11 23:22:00,34.1,30.9,29.69,WSW,254,3.0,4.0,88,0.00,,,0.24,Wunderground v.1.15,2014-01-12 04:22:00,
2014-01-11 23:28:00,34.2,31.0,29.69,WNW,285,3.0,4.0,88,0.00,,,0.24,Wunderground v.1.15,2014-01-12 04:28:00,
2014-01-11 23:36:00,34.2,31.0,29.69,WSW,240,3.0,6.0,88,0.00,,,0.24,Wunderground v.1.15,2014-01-12 04:36:00,
2014-01-11 23:42:00,34.2,31.0,29.70,WSW,250,3.0,3.0,88,0.00,,,0.24,Wunderground v.1.15,2014-01-12 04:42:00,
2014-01-11 23:50:00,34.1,30.9,29.69,WNW,285,4.0,4.0,88,0.00,,,0.24,Wunderground v.1.15,2014-01-12 04:50:00,
2014-01-11 23:56:00,34.1,31.2,29.69,WNW,294,3.0,4.0,89,0.00,,,0.24,Wunderground v.1.15,2014-01-12 04:56:00,